• In Lithuania
  • List of Countries
  • For 7 days
  • Water Temperature
  • Satellite Maps
  • Weather Map
  • Weather Widgets
  • user-avatar
    Login

    Hourly Weather Loja

    Today, 17 January, Wednesday

    Time Temperature Precipitation Wind Pressure Humidity
    00:00 +7°C° 0 mm 2 mps 715 mmHg 69%
    01:00 +7°C° 0 mm 2 mps 715 mmHg 70%
    02:00 +7°C° 0 mm 2 mps 715 mmHg 72%
    03:00 +7°C° 0 mm 2 mps 714 mmHg 73%
    04:00 +7°C° 0 mm 2 mps 714 mmHg 73%
    05:00 +7°C° 0 mm 2 mps 714 mmHg 74%
    06:00 +7°C° 0 mm 1 mps 714 mmHg 75%
    07:00 +7°C° 0 mm 2 mps 714 mmHg 72%
    08:00 +8°C° 0 mm 2 mps 714 mmHg 68%
    09:00 +9°C° 0 mm 2 mps 714 mmHg 65%
    10:00 +12°C° 0 mm 2 mps 714 mmHg 58%
    11:00 +14°C° 0 mm 2 mps 714 mmHg 52%
    12:00 +17°C° 0 mm 2 mps 714 mmHg 46%
    13:00 +17°C° 0 mm 2 mps 714 mmHg 45%
    14:00 +18°C° 0 mm 2 mps 714 mmHg 44%
    15:00 +18°C° 0 mm 2 mps 714 mmHg 44%
    16:00 +16°C° 0 mm 2 mps 713 mmHg 51%
    17:00 +14°C° 0 mm 2 mps 713 mmHg 59%
    18:00 +12°C° 0 mm 1 mps 713 mmHg 67%
    19:00 +12°C° 0 mm 2 mps 713 mmHg 68%
    20:00 +10°C° 0 mm 2 mps 713 mmHg 68%
    21:00 +10°C° 0 mm 2 mps 713 mmHg 69%
    22:00 +9°C° 0 mm 2 mps 713 mmHg 70%
    23:00 +9°C° 0 mm 2 mps 713 mmHg 71%

    Tomorrow, 18 January, Thursday

    Time Temperature Precipitation Wind Pressure Humidity
    00:00 +9°C° 0 mm 2 mps 713 mmHg 71%
    01:00 +9°C° 0 mm 2 mps 713 mmHg 72%
    02:00 +8°C° 0 mm 2 mps 713 mmHg 72%
    03:00 +8°C° 0 mm 2 mps 713 mmHg 72%
    04:00 +8°C° 0 mm 2 mps 713 mmHg 72%
    05:00 +7°C° 0 mm 2 mps 713 mmHg 73%
    06:00 +7°C° 0 mm 2 mps 713 mmHg 73%
    07:00 +8°C° 0 mm 2 mps 713 mmHg 71%
    08:00 +9°C° 0 mm 2 mps 713 mmHg 69%
    09:00 +10°C° 0 mm 2 mps 713 mmHg 67%
    10:00 +13°C° 0 mm 2 mps 713 mmHg 61%
    11:00 +14°C° 0 mm 2 mps 713 mmHg 54%
    12:00 +16°C° 0 mm 2 mps 713 mmHg 48%
    13:00 +16°C° 0 mm 2 mps 713 mmHg 47%
    14:00 +17°C° 0 mm 2 mps 712 mmHg 47%
    15:00 +17°C° 0 mm 2 mps 712 mmHg 46%
    16:00 +15°C° 0 mm 2 mps 712 mmHg 53%
    17:00 +13°C° 0 mm 1 mps 711 mmHg 60%
    18:00 +11°C° 0 mm 1 mps 711 mmHg 67%
    19:00 +11°C° 0 mm 1 mps 711 mmHg 68%
    20:00 +11°C° 0 mm 1 mps 711 mmHg 69%
    21:00 +11°C° 0 mm 1 mps 711 mmHg 70%
    22:00 +11°C° 0 mm 1 mps 711 mmHg 70%
    23:00 +11°C° 0 mm 1 mps 711 mmHg 70%

    Day after tomorrow, 19 January, Friday

    Time Temperature Precipitation Wind Pressure Humidity
    00:00 +10°C° 0 mm 0 mps 711 mmHg 70%
    01:00 +9°C° 0 mm 0 mps 711 mmHg 70%
    02:00 +9°C° 0 mm 0 mps 711 mmHg 70%
    03:00 +9°C° 0 mm 0 mps 710 mmHg 71%
    04:00 +9°C° 0 mm 0 mps 710 mmHg 73%
    05:00 +8°C° 0 mm 0 mps 710 mmHg 74%
    06:00 +8°C° 0 mm 0 mps 710 mmHg 76%
    07:00 +9°C° 0 mm 0 mps 711 mmHg 75%
    08:00 +10°C° 0 mm 1 mps 711 mmHg 73%
    09:00 +11°C° 0 mm 1 mps 712 mmHg 72%
    10:00 +12°C° 0 mm 1 mps 712 mmHg 67%
    11:00 +13°C° 0 mm 1 mps 712 mmHg 62%
    12:00 +14°C° 0 mm 2 mps 712 mmHg 57%
    13:00 +15°C° 0 mm 2 mps 712 mmHg 56%
    14:00 +15°C° 0 mm 2 mps 712 mmHg 55%
    15:00 +15°C° 0 mm 2 mps 712 mmHg 53%
    16:00 +14°C° 0 mm 2 mps 712 mmHg 59%
    17:00 +12°C° 0 mm 2 mps 712 mmHg 65%
    18:00 +10°C° 0 mm 2 mps 712 mmHg 71%
    19:00 +9°C° 0 mm 2 mps 713 mmHg 72%
    20:00 +9°C° 0 mm 2 mps 713 mmHg 72%
    21:00 +8°C° 0 mm 2 mps 714 mmHg 72%
    22:00 +9°C° 0 mm 1 mps 714 mmHg 73%
    23:00 +9°C° 0 mm 1 mps 714 mmHg 73%

    20 January, Saturday

    Time Temperature Precipitation Wind Pressure Humidity
    00:00 +9°C° 0 mm 1 mps 714 mmHg 73%
    01:00 +8°C° 0 mm 1 mps 714 mmHg 74%
    02:00 +7°C° 0 mm 2 mps 714 mmHg 74%
    03:00 +7°C° 0 mm 2 mps 714 mmHg 74%
    04:00 +7°C° 0 mm 2 mps 714 mmHg 74%
    05:00 +6°C° 0 mm 2 mps 715 mmHg 75%
    06:00 +6°C° 0 mm 2 mps 715 mmHg 75%
    07:00 +7°C° 0 mm 2 mps 715 mmHg 72%
    08:00 +8°C° 0 mm 2 mps 716 mmHg 69%
    09:00 +9°C° 0 mm 2 mps 716 mmHg 66%
    10:00 +12°C° 0 mm 2 mps 717 mmHg 59%
    11:00 +13°C° 0 mm 2 mps 717 mmHg 52%
    12:00 +15°C° 0 mm 2 mps 717 mmHg 45%
    13:00 +15°C° 0 mm 2 mps 717 mmHg 44%
    14:00 +16°C° 0 mm 2 mps 716 mmHg 43%
    15:00 +16°C° 0 mm 3 mps 716 mmHg 42%
    16:00 +14°C° 0 mm 2 mps 716 mmHg 48%
    17:00 +13°C° 0 mm 2 mps 716 mmHg 54%
    18:00 +10°C° 0 mm 2 mps 716 mmHg 60%
    19:00 +10°C° 0 mm 2 mps 716 mmHg 61%
    20:00 +9°C° 0 mm 2 mps 717 mmHg 62%
    21:00 +9°C° 0 mm 2 mps 717 mmHg 63%
    22:00 +8°C° 0 mm 2 mps 717 mmHg 65%
    23:00 +8°C° 0 mm 2 mps 717 mmHg 66%

    21 January, Sunday

    Time Temperature Precipitation Wind Pressure Humidity
    00:00 +8°C° 0 mm 2 mps 717 mmHg 67%
    01:00 +8°C° 0 mm 2 mps 717 mmHg 68%
    02:00 +8°C° 0 mm 2 mps 717 mmHg 68%
    03:00 +8°C° 0 mm 2 mps 717 mmHg 68%
    04:00 +8°C° 0 mm 2 mps 717 mmHg 67%
    05:00 +8°C° 0 mm 2 mps 717 mmHg 67%
    06:00 +8°C° 0 mm 2 mps 717 mmHg 66%
    07:00 +9°C° 0 mm 2 mps 717 mmHg 64%
    08:00 +10°C° 0 mm 2 mps 718 mmHg 63%
    09:00 +12°C° 0 mm 2 mps 718 mmHg 62%
    10:00 +14°C° 0 mm 2 mps 719 mmHg 57%
    11:00 +16°C° 0 mm 2 mps 719 mmHg 52%
    12:00 +18°C° 0 mm 2 mps 719 mmHg 47%
    13:00 +18°C° 0 mm 2 mps 719 mmHg 47%
    14:00 +19°C° 0 mm 2 mps 718 mmHg 47%
    15:00 +19°C° 0 mm 2 mps 718 mmHg 46%
    16:00 +17°C° 0 mm 2 mps 718 mmHg 53%
    17:00 +15°C° 0 mm 2 mps 718 mmHg 59%
    18:00 +14°C° 0 mm 2 mps 718 mmHg 65%
    19:00 +13°C° 0 mm 2 mps 718 mmHg 66%
    20:00 +13°C° 0 mm 1 mps 718 mmHg 67%
    21:00 +12°C° 0 mm 1 mps 719 mmHg 68%
    22:00 +12°C° 0 mm 1 mps 718 mmHg 68%
    23:00 +11°C° 0 mm 1 mps 718 mmHg 68%

    22 January, Monday

    Time Temperature Precipitation Wind Pressure Humidity
    00:00 +11°C° 0 mm 1 mps 718 mmHg 68%
    01:00 +11°C° 0 mm 1 mps 718 mmHg 67%
    02:00 +11°C° 0 mm 1 mps 718 mmHg 67%
    03:00 +11°C° 0 mm 1 mps 718 mmHg 67%
    04:00 +10°C° 0 mm 1 mps 718 mmHg 66%
    05:00 +10°C° 0 mm 1 mps 718 mmHg 66%
    06:00 +10°C° 0 mm 1 mps 718 mmHg 65%
    07:00 +11°C° 0 mm 1 mps 718 mmHg 63%
    08:00 +12°C° 0 mm 1 mps 718 mmHg 60%
    09:00 +13°C° 0 mm 1 mps 719 mmHg 58%
    10:00 +15°C° 0 mm 1 mps 719 mmHg 52%
    11:00 +18°C° 0 mm 1 mps 719 mmHg 47%
    12:00 +20°C° 0 mm 1 mps 719 mmHg 41%
    13:00 +20°C° 0 mm 1 mps 719 mmHg 41%
    14:00 +20°C° 0 mm 1 mps 718 mmHg 41%
    15:00 +21°C° 0 mm 1 mps 718 mmHg 40%
    16:00 +19°C° 0 mm 1 mps 718 mmHg 47%
    17:00 +16°C° 0 mm 1 mps 718 mmHg 53%
    18:00 +14°C° 0 mm 1 mps 717 mmHg 60%
    19:00 +13°C° 0 mm 1 mps 718 mmHg 61%
    20:00 +13°C° 0 mm 1 mps 718 mmHg 62%
    21:00 +12°C° 0 mm 1 mps 718 mmHg 64%
    22:00 +12°C° 0 mm 1 mps 718 mmHg 64%
    23:00 +12°C° 0 mm 1 mps 718 mmHg 65%
    Show more